Location: Leemon
(37.4642°N, 89.5884°W)
Time: 00:07:16
(UTC+00:00)

Daily predictions for brighter satellites

Satellite Brightness Start Highest point End
(mag) Time Altitude Azimuth Time Altitude Azimuth Time Altitude Azimuth
Cosmos 1980 Rocket 2.4 00:02:04 10° S 00:07:31 53° ESE 00:13:02 10° NNE
Cosmos 44 4.3 00:04:40 10° NNW 00:09:37 34° NE 00:14:27 10° ESE
ERS-2 3.0 00:07:24 10° NE 00:10:36 28° E 00:13:46 10° SSE
Cosmos 1452 Rocket 3.9 00:06:37 10° SSW 00:11:50 71° WNW 00:17:05 10° NNE
Timation 1 Rocket 4.5 00:08:07 10° NNW 00:13:58 54° ENE 00:19:47 10° SE
RESURS DK-1 2.4 00:10:16 10° NNW 00:14:25 88° WSW 00:18:32 10° SSE
Cosmos 2322 Rocket 3.9 00:15:53 10° ESE 00:17:42 12° E 00:19:30 10° ENE
SAR-Lupe-4 4.3 00:15:35 10° NE 00:18:48 31° E 00:22:01 10° SSE
Meteor 2-17 Rocket 4.4 00:13:46 10° S 00:19:49 68° E 00:25:53 10° NNE
FALCON 9 DEB 3.9 00:17:08 10° WSW 00:20:11 44° NW 00:23:15 10° NE
Cosmos 1867 3.6 00:15:33 10° SSW 00:20:54 67° ESE 00:26:19 10° NE
Atlas Centaur 2 4.3 00:16:31 10° WSW 00:21:58 25° SSW 00:26:35 10° SSE
USA 305 3.4 00:17:46 10° WSW 00:22:00 62° NW 00:26:15 10° NE
Okean O Rocket 3.5 00:19:44 10° SSW 00:23:43 35° W 00:27:43 10° NNW
Cosmos 2082 3.7 00:19:23 10° NNW 00:25:00 65° ENE 00:30:33 10° SSE
PSLV R/B 4.0 00:22:43 10° NNE 00:26:47 58° E 00:30:47 10° S
Cosmos 1741 Rocket 4.0 00:21:53 10° NNW 00:27:11 63° ENE 00:32:25 10° SSE
CZ-4 R/B 1.3 00:24:32 10° SSE 00:28:16 54° ENE 00:32:02 10° N
Cosmos 1110 Rocket 4.0 00:23:23 10° S 00:28:38 74° ESE 00:33:58 10° NNE
Cosmos 724 4.5 00:23:22 10° SSW 00:29:21 83° WNW 00:35:33 10° NNE
USA 307 3.5 00:25:45 10° WSW 00:29:57 56° NW 00:34:10 10° NE
MOS 1 Rocket 4.5 00:25:54 10° N 00:30:39 51° WNW 00:35:40 10° SSW
ERBS 3.8 00:28:31 10° S 00:30:58 19° ESE 00:32:34 14° E
Cosmos 1697 Rocket 3.8 00:26:18 10° SW 00:31:45 48° WNW 00:37:13 10° N
IRS-1C Rocket 4.1 00:28:42 10° SSE 00:33:57 81° ENE 00:39:14 10° NNW
SL-24 R/B - RUBIN 2 4.1 00:28:33 10° NNW 00:34:13 83° WSW 00:39:09 10° SSE
USA 306 3.8 00:32:06 10° WSW 00:36:14 47° NW 00:40:24 10° NE
SAR-Lupe-1 4.1 00:33:21 10° NNE 00:36:55 58° ESE 00:40:26 10° S
SL-16 R/B 3.2 00:32:30 10° SSE 00:36:56 24° ESE 00:41:24 10° NE
USA 308 3.8 00:36:09 10° WSW 00:40:16 46° NW 00:44:24 10° NE
DMSP B5D1-3 4.5 00:35:16 10° NNE 00:40:23 65° ESE 00:45:29 10° S
HJ-1C 3.6 00:42:44 10° SSE 00:45:55 44° ENE 00:49:06 10° N
Cosmos 1805 Rocket 3.6 00:41:58 10° S 00:46:18 82° W 00:50:42 10° N
SeaSat 1 2.9 00:42:04 10° NNE 00:46:57 63° WNW 00:51:48 10° SW
Cosmos 1689 Rocket 2.0 00:45:14 10° N 00:48:06 80° WNW 00:50:58 10° SSW
Abrixas rocket 2.1 00:47:50 10° SSW 00:50:12 39° SE 00:50:44 33° ESE
Cosmos 1271 Rocket 3.3 00:50:50 10° NNE 00:54:13 32° ENE 00:56:23 18° SE
Cosmos 1602 4.3 00:52:48 10° SSE 00:56:16 33° E 00:59:47 10° NNE
Cosmos 2263 Rocket 2.7 00:52:59 10° N 00:58:06 36° ENE 01:01:17 20° ESE
USA 234 3.8 00:53:18 10° NE 00:59:41 57° NW 01:06:03 10° WSW
Cosmos 1461 3.4 00:55:19 10° S 00:59:47 48° ESE 01:03:13 17° NE
Cosmos 2154 Rocket 4.3 00:54:18 10° SSE 01:00:08 43° E 01:05:58 10° NNE
Cosmos 2228 Rocket 3.9 00:56:39 10° NNW 01:01:04 55° W 01:05:24 10° S
GP-B 4.2 01:02:28 24° ENE 01:02:28 24° ENE 01:05:23 10° NNE
SL-08 RB Rocket 3.7 00:57:30 10° SSE 01:01:50 53° ENE 01:06:14 10° N
Nadezhda 3 Rocket 4.5 00:58:59 10° N 01:04:50 37° ENE 01:10:40 10° SE
H-2A R/B 2.6 01:00:39 10° S 01:05:58 65° W 01:11:25 10° NNW
Cosmos 2227 Rocket 4.4 01:01:25 10° NW 01:06:07 27° WSW 01:10:48 10° SSW
Cosmos 1666 Rocket 3.4 01:03:54 10° S 01:08:15 77° E 01:12:35 10° N
Cosmos 2074 Rocket 3.9 01:02:26 10° S 01:08:42 83° E 01:15:00 10° N
ARGOS 3.2 01:04:54 10° SSE 01:10:19 87° WSW 01:15:46 10° NNW
Cosmos 1862 Rocket 4.0 01:10:01 10° N 01:14:12 38° ENE 01:14:35 37° E
Meteor 1-27 Rocket 4.3 01:12:37 10° NNW 01:18:00 57° W 01:23:24 10° S
Helios 1A Rocket 3.1 01:15:17 10° S 01:19:21 70° WSW 01:23:25 10° NNW
Meteor 1-25 Rocket 4.2 01:14:37 10° S 01:20:27 87° E 01:26:14 10° N
MetOp-A 4.3 01:17:36 24° SE 01:20:29 47° ENE 01:25:36 10° N
Cosmos 2184 Rocket 4.0 01:15:33 10° S 01:21:41 81° W 01:27:53 10° N
YAOGAN 1 4.1 01:18:34 10° SSW 01:22:35 38° W 01:26:38 10° NNW
SL-4 R/B 4.3 01:23:10 10° NNW 01:24:12 11° NNW 01:25:12 10° N
CSL-04 Debris 4.3 01:19:01 10° S 01:24:25 75° WSW 01:29:51 10° NNW
Cosmos 1932 4.4 01:19:03 10° SSW 01:25:32 79° ESE 01:31:52 11° NNE
Okean-O 4.1 01:21:29 10° SSW 01:25:36 38° W 01:29:44 10° NNW
Cosmos 1295 Rocket 4.5 01:19:31 10° S 01:25:41 59° E 01:31:49 10° NNE
CZ-2C R/B 3.0 01:20:59 10° N 01:26:29 69° WNW 01:31:50 10° SSW
COSMOS 2455 2.8 01:21:34 10° NNW 01:27:37 84° WSW 01:32:50 14° SSE
Cosmos 1437 3.2 01:25:27 10° NNW 01:28:16 52° W 01:28:32 49° WSW
CSL-04 Rocket 4.0 01:25:53 10° S 01:31:25 70° WSW 01:36:58 10° NNW
Lacrosse 5 rocket 1.9 01:27:59 10° NW 01:32:13 56° SW 01:33:43 34° S
Cosmos 2360 Rocket 3.9 01:30:55 10° SSE 01:32:13 16° SSE 01:32:13 16° SSE
Meteor 2-12 Rocket 4.3 01:33:32 10° S 01:39:33 74° E 01:45:37 10° N
Cosmos 1992 Rocket 3.9 01:35:28 10° S 01:40:25 58° ESE 01:40:25 58° ESE
TSX-5 4.1 01:37:47 10° NNW 01:41:47 55° WSW 01:42:07 53° SW
SME Rocket 4.2 01:34:25 10° NNE 01:43:05 71° E 01:48:36 10° S
Cosmos 2341 Rocket 4.1 01:39:08 10° SSE 01:45:14 52° E 01:51:20 10° NNE
Cosmos 962 Rocket 4.4 01:40:08 10° S 01:46:09 61° E 01:52:17 10° NNE
Cosmos 1633 Rocket 4.3 01:46:23 10° SSW 01:50:32 41° W 01:54:44 10° N
Cosmos 968 Rocket 3.7 01:55:01 10° NNW 01:59:27 61° N 01:59:27 61° N
Cosmos 2322 Rocket 2.2 01:55:19 10° SSW 02:00:55 79° WNW 02:03:06 39° NNE
SL-16 R/B 3.3 02:15:23 10° SW 02:20:43 42° WNW 02:25:35 12° N
Ariane Rocket 4.0 02:24:09 42° NW 02:24:09 42° NW 02:27:36 10° NNW
Cosmos 2263 Rocket 3.9 02:37:11 10° NW 02:41:48 27° WSW 02:43:04 25° SW
ALOS 4.2 09:39:48 10° NNE 09:42:44 28° ENE 09:42:44 28° ENE
H-2A R/B 4.5 09:45:03 40° SW 09:51:40 54° S 09:58:35 10° E
H-2A R/B 3.8 10:03:31 10° SE 10:07:22 31° ENE 10:11:10 10° N
Cosmos 2278 4.0 10:10:01 27° N 10:13:12 64° ENE 10:18:51 10° SSE
SeaSat 1 2.9 10:13:42 10° SE 10:18:32 60° ENE 10:20:53 30° N
Meteor 1-27 4.0 10:22:23 76° SSW 10:22:51 86° W 10:28:26 10° N
Meteor 2-15 4.3 10:24:04 60° SW 10:25:10 76° W 10:31:21 10° N
ATLAS CENTAUR R/B 4.0 10:30:18 10° N 10:33:09 18° NE 10:36:06 10° E
Cosmos 1932 4.4 10:30:29 18° NNW 10:35:18 80° ENE 10:41:29 10° SSE
Cosmos 2082 Rocket 3.2 10:37:25 31° NNW 10:37:25 31° NNW 10:41:21 10° N
FENGYUN 3A 3.5 10:31:55 10° N 10:37:19 69° WNW 10:38:30 52° SW
Cosmos 1452 Rocket 4.4 10:44:07 33° SSW 10:44:07 33° SSW 10:47:13 10° S
Iridium 4 Rocket 3.5 10:43:04 55° WNW 10:43:04 55° WNW 10:47:40 10° N
SL-08 ROCKET BODY 4.4 10:36:53 10° N 10:43:00 86° E 10:49:10 10° S
COSMO-SKYMED 1 4.2 10:40:00 10° SE 10:43:54 34° ENE 10:47:51 10° N
NOSS 2-2 (C) 3.2 10:44:15 66° ESE 10:44:15 66° ESE 10:47:43 10° NE
Meteor 1-4 Rocket 4.2 10:42:17 10° SSE 10:45:43 35° E 10:49:08 10° NNE
Cosmos 1980 Rocket 2.1 10:44:25 30° NW 10:47:12 61° WSW 10:52:47 10° S
Milstar 3 Cent rocket 3.9 10:45:53 13° S 10:47:59 17° SSE 10:51:15 10° ESE
Meteor 2-3 Rocket 3.9 10:43:53 10° NNW 10:49:22 49° W 10:54:51 10° SSW
SL-08 R/B 4.3 10:47:16 10° N 10:53:26 74° W 10:59:31 10° S
Meteor 1-31 Rocket 2.8 10:49:45 10° NNE 10:53:40 80° ESE 10:57:18 11° S
Cosmos 2322 Rocket 3.8 10:51:38 10° N 10:56:45 34° ENE 11:01:52 10° SE
Cosmos 1110 Rocket 3.9 10:53:18 10° NNW 10:58:36 79° WSW 11:03:48 10° SSE
ADEOS 3.5 10:53:22 10° NNE 10:58:36 84° WNW 11:03:49 10° SSW
METEOR-M 4.1 10:53:27 10° N 10:58:42 59° WNW 11:03:17 13° SSW
NOSS 2-2 (E) 3.1 11:00:09 54° NW 11:00:09 54° NW 11:03:34 10° NNE
Cosmos 1461 3.3 11:05:10 41° WSW 11:05:16 41° WSW 11:09:12 10° S
Cosmos 1766 Rocket 4.3 11:01:57 10° NNW 11:07:09 32° WSW 11:10:11 10° SSW
Meteor 2-2 Rocket 4.3 11:01:23 10° S 11:07:17 81° W 11:13:20 10° N
CZ-2C R/B 4.4 11:04:39 10° NNW 11:05:24 12° NNW 11:05:24 12° NNW
CZ-4B R/B 3.6 11:05:32 10° N 11:09:19 62° WNW 11:12:03 17° SSW
X-37B 2.5 11:12:44 19° NNW 11:13:40 21° N 11:16:11 10° ENE
SL-16 R/B 2.6 11:11:17 10° NNW 11:16:56 64° ENE 11:22:32 10° SSE
Cosmos 2315 Rocket 4.2 11:11:42 10° S 11:17:53 74° E 11:24:05 10° N
ALOS 3.4 11:17:32 10° NNW 11:21:11 23° WNW 11:21:15 23° WNW
Cosmos 1408 Rocket 3.7 11:19:06 10° NNW 11:23:22 48° W 11:27:36 10° SSW
Cosmos 1269 Rocket 4.2 11:23:21 10° SW 11:28:25 47° WNW 11:33:32 10° N
deb Chang Zheng 4 3.5 11:24:30 10° NNE 11:28:48 90° WNW 11:33:05 10° SSW
Cosmos 883 Rocket 4.4 11:25:26 10° SSW 11:31:37 70° W 11:37:47 10° N
SKYMED 2 3.5 11:27:32 10° S 11:31:50 65° W 11:36:09 10° NNW
H-2A R/B 2.7 11:28:24 10° N 11:32:19 85° W 11:36:13 10° SSW
Cosmos 1500 Rocket 3.4 11:31:21 10° NNW 11:35:41 71° W 11:39:59 10° S
ISS -1.5 11:35:04 12° NW 11:36:05 13° NNW 11:37:48 10° N
Cosmos 1842 Rocket 4.3 11:32:15 10° SW 11:36:08 30° WNW 11:40:01 10° NNW
Cosmos 2221 3.3 11:33:15 10° SW 11:37:08 31° WNW 11:41:02 10° NNW
MOS 1 Rocket 3.1 11:33:17 10° S 11:37:27 56° W 11:41:43 10° NNW
YAOGAN 6 2.6 11:36:37 10° NNE 11:40:10 79° ESE 11:43:40 10° S
CZ-3 R/B 3.7 11:29:29 10° SW 11:40:31 25° S 11:45:18 10° ESE
Meteor PRIRODA 3.7 11:39:39 10° N 11:43:18 55° WNW 11:46:55 10° SSW
H-2A R/B 3.3 11:40:04 10° SW 11:43:19 20° W 11:46:33 10° NW
Sich 1 4.1 11:39:04 10° N 11:43:23 50° E 11:47:41 10° SSE
ASTRO E2 4.2 11:41:26 10° SW 11:44:53 28° S 11:48:20 10° ESE
SJ-7 4.4 11:41:04 10° NNE 11:45:04 85° ESE 11:49:03 10° SSW
NOSS 2-2 (D) 4.3 11:44:25 16° W 11:46:08 23° NW 11:49:04 10° N
USA 215 4.0 11:42:01 10° NE 11:48:26 55° SE 11:54:49 10° SSW
CZ-4B R/B 2.0 11:47:07 10° SSW 11:50:04 32° W 11:52:58 10° NNW
SL-27 R/B 3.1 11:48:56 10° SW 11:52:06 33° WNW 11:55:20 10° N
SeaSat 1 4.0 11:53:27 10° SW 11:56:20 15° WSW 11:59:13 10° WNW
